Theta_e
316 315 315 315 315 315 316 316 315 315 314 314 314 314 314 314 314 314 314 313 313 312 312 312 311 310 310 309 309 308 307 307 306 305 305 304 304 303 303 302 301 301 300 300 300 299 299 299 299 299 299 300 300 300 300 300 300 300 300 300 300 300 300 300 300 300 299 299 299 299 299 299 298 298 296 296 296 295 295 294 293 293 293 293 293
315 315 316 315 315 315 315 315 315 315 315 315 314 314 314 314 314 314 314 313 313 313 312 312 312 312 311 311 311 309 309 308 308 307 307 305 304 303 303 302 301 301 300 300 299 299 299 298 299 299 299 299 299 299 299 299 299 299 299 299 299 299 299 299 299 299 299 299 299 299 299 298 298 297 296 296 296 295 294 294 293 293 293 293 292
314 315 316 316 315 315 315 315 315 315 314 314 314 313 313 313 313 313 313 313 313 313 312 312 312 312 311 311 310 310 309 308 308 307 307 305 304 303 302 302 301 301 300 299 299 299 298 298 298 298 299 299 299 299 299 299 299 299 299 299 299 299 299 299 299 299 298 298 298 298 299 298 297 297 296 295 295 295 294 294 293 293 293 293 293
314 315 316 316 315 315 315 315 315 314 314 314 313 313 313 313 313 313 313 313 313 312 311 311 311 310 310 309 308 308 308 307 307 306 305 305 303 303 302 302 301 301 300 299 299 298 298 298 298 298 298 298 299 299 299 299 299 299 299 299 299 298 298 298 298 298 298 298 298 297 297 296 295 296 295 295 295 296 295 294 293 293 293 293 293
315 316 316 316 315 315 315 315 315 314 314 314 314 314 313 313 313 313 313 313 312 311 310 310 309 309 309 308 306 306 306 306 305 305 305 304 304 304 303 303 302 301 300 299 298 298 298 297 297 298 298 298 298 299 299 299 298 298 298 298 298 298 298 298 298 297 297 297 297 297 296 295 294 294 294 295 296 295 294 294 293 293 293 293 293
316 316 316 317 315 315 315 315 315 314 314 313 313 313 313 313 313 312 312 312 311 311 310 309 309 309 309 308 307 306 306 306 306 306 306 306 306 305 304 303 302 301 301 299 298 298 297 297 297 297 298 298 298 298 298 298 298 298 298 298 298 298 298 298 297 297 297 297 297 297 296 295 294 293 293 294 294 294 294 294 293 293 293 294 293
316 316 317 317 316 314 315 314 314 314 314 313 313 312 312 312 312 312 312 311 311 310 309 309 308 309 309 309 309 309 308 308 308 308 307 307 306 306 305 303 302 301 301 300 299 298 297 297 297 297 297 297 298 298 298 298 298 298 298 297 297 297 297 297 297 296 296 296 296 296 296 295 294 293 292 292 292 293 294 293 293 293 293 293 293
316 317 317 317 316 314 314 314 314 314 314 314 313 313 312 312 312 312 311 311 310 310 309 309 309 309 309 308 308 309 309 309 309 308 307 307 306 306 305 304 303 302 301 300 299 298 298 297 297 297 297 297 297 298 298 298 298 297 297 297 297 297 297 297 296 296 296 296 295 295 294 294 293 292 292 291 291 292 293 293 293 293 293 293 293
317 317 317 317 316 314 313 314 314 314 314 314 313 313 312 312 312 311 311 310 310 310 309 309 309 309 309 308 308 308 308 308 308 307 307 307 306 306 305 304 303 302 301 300 299 298 298 297 297 296 296 297 297 297 297 297 297 297 297 297 297 297 297 297 296 296 296 296 295 294 293 293 292 292 291 291 291 291 291 292 292 293 294 294 293
317 317 316 316 315 314 314 314 314 314 314 314 314 313 312 312 312 311 311 311 310 310 309 309 309 308 308 308 308 308 307 307 306 306 306 306 306 306 305 304 304 303 302 300 299 298 297 297 296 296 296 296 297 297 297 297 297 297 297 297 296 296 296 296 296 296 296 295 295 294 293 292 291 291 291 291 290 290 291 291 291 291 293 294 294
316 317 316 316 314 313 314 314 314 314 314 314 313 313 313 312 312 311 311 311 310 310 309 309 309 308 308 308 308 308 307 307 306 306 306 305 305 305 305 305 304 303 302 301 300 299 297 297 296 296 296 296 296 297 297 297 297 297 296 296 296 296 296 296 296 296 296 295 295 294 293 291 291 290 290 290 290 290 291 292 292 291 292 294 293
316 316 315 315 314 313 314 313 314 314 314 314 313 313 313 312 312 311 311 311 310 310 309 309 309 308 308 308 308 308 307 307 307 306 306 306 306 305 305 305 304 304 303 302 301 299 298 297 296 295 295 296 296 296 296 297 297 296 296 296 296 296 296 296 296 296 296 295 295 295 293 292 291 291 290 290 290 290 291 292 292 292 293 294 293
314 314 314 313 313 313 314 313 314 314 314 314 313 313 313 312 312 311 311 311 310 310 309 309 309 308 308 308 307 307 307 307 307 306 306 306 306 306 306 306 305 305 304 303 302 300 299 297 296 296 295 296 296 296 296 296 296 296 296 296 296 296 296 296 296 296 296 295 295 295 294 293 291 291 291 290 290 290 290 291 291 291 292 293 293
313 313 314 313 312 313 313 313 313 313 313 313 313 313 313 312 312 312 311 311 310 310 309 309 308 308 308 307 307 307 307 307 306 306 306 306 305 306 306 306 306 306 306 305 303 301 300 298 297 296 296 295 295 295 296 296 296 296 296 296 295 295 295 295 296 296 296 295 295 295 294 292 292 291 291 290 290 290 289 289 289 289 289 291 292
313 313 313 313 312 312 313 313 312 312 313 313 313 312 312 312 312 312 311 310 310 309 309 308 308 308 308 307 307 307 306 306 306 306 305 305 305 305 306 306 306 306 305 305 304 302 300 299 297 296 296 295 295 295 295 295 295 295 295 295 295 295 295 295 295 295 295 295 295 294 293 292 291 291 290 290 290 289 289 288 288 288 288 288 290
313 313 313 313 312 312 313 313 312 312 312 313 313 312 312 312 312 311 311 310 310 309 309 308 308 308 307 307 307 306 306 306 306 306 306 306 306 306 306 307 306 306 305 304 303 302 301 299 298 296 295 295 295 295 295 295 295 295 295 295 295 295 295 295 295 295 295 295 295 294 293 292 291 291 290 290 289 289 288 288 288 287 287 286 287
313 313 313 313 312 311 313 313 312 312 312 312 312 312 312 312 311 311 310 310 309 309 308 308 308 308 308 307 307 307 307 307 307 307 306 306 306 306 306 306 306 305 305 304 303 302 301 299 298 297 296 295 294 294 294 294 295 295 295 295 295 295 295 295 295 295 295 295 294 294 293 292 291 291 290 290 289 289 288 288 288 287 287 286 286
314 314 314 313 312 312 312 312 312 312 312 312 312 311 312 311 311 311 310 310 310 309 308 308 308 308 308 308 308 308 308 308 308 308 307 306 306 306 307 306 306 306 305 304 303 302 300 299 298 297 296 295 294 294 294 294 294 294 294 294 294 294 294 294 294 294 294 294 294 294 293 292 291 290 290 290 289 289 288 288 288 287 287 286 286
314 314 314 313 313 312 312 312 312 312 312 312 312 311 311 310 310 310 310 310 309 308 308 308 308 309 309 309 308 308 309 309 309 308 307 307 308 308 307 307 307 306 305 304 303 302 300 299 298 297 296 295 294 294 294 294 294 294 294 294 294 294 294 294 294 294 294 294 294 294 293 292 291 290 290 290 289 289 288 288 288 288 287 287 286
314 314 314 313 313 313 312 312 312 312 311 311 311 311 310 310 310 310 310 310 309 309 308 307 307 308 309 309 309 308 308 308 308 308 308 308 308 308 308 307 307 306 305 304 303 302 301 299 298 297 297 295 294 294 293 293 293 293 293 294 294 294 294 294 294 294 294 294 294 294 293 292 290 290 290 289 289 289 288 288 288 288 287 287 287
314 314 314 313 313 313 313 312 312 311 312 312 311 312 311 311 311 310 310 310 310 310 309 308 308 308 309 310 310 309 308 307 306 306 307 307 308 307 307 307 306 306 305 304 304 303 301 299 298 297 297 296 295 294 293 293 293 293 293 293 294 294 294 294 294 294 294 294 294 293 292 291 290 290 290 289 289 288 288 288 288 288 287 287 287
313 313 312 313 312 312 312 312 312 312 312 312 312 312 312 312 312 310 310 310 310 310 310 310 309 309 310 311 311 310 308 307 306 306 307 307 308 308 307 306 306 306 305 305 304 303 301 299 298 297 297 296 295 294 293 293 293 293 293 293 293 294 293 293 294 294 294 294 294 293 292 290 290 289 289 289 289 288 288 288 288 288 287 287 287
313 312 313 313 312 312 312 312 312 311 312 312 312 312 312 312 312 311 311 310 310 310 310 310 309 309 310 310 310 310 309 307 307 306 307 308 308 308 307 306 306 306 305 305 304 303 301 299 298 297 296 296 295 294 293 293 293 292 293 293 293 293 293 293 293 293 293 293 293 292 291 290 289 289 289 289 288 288 288 288 288 288 287 287 287
313 313 313 312 311 311 311 311 311 311 311 311 312 313 312 312 313 312 312 312 311 310 309 309 308 309 309 309 309 309 309 308 307 307 307 308 308 308 307 307 306 305 305 305 304 302 301 299 298 297 296 296 295 295 293 293 292 292 292 292 293 293 293 293 293 293 293 293 293 292 291 290 289 289 289 289 288 288 288 288 288 287 287 287 287
312 312 312 310 310 309 309 309 309 309 310 310 311 312 312 312 313 312 313 313 312 311 310 309 309 308 308 308 308 308 308 308 308 308 308 307 308 308 308 307 306 305 305 304 303 302 301 300 299 298 297 296 295 295 294 293 292 292 292 292 293 293 293 293 293 293 293 293 292 291 290 290 289 289 289 289 288 288 288 288 288 287 287 287 287
309 309 309 308 309 308 308 308 307 307 307 307 309 310 311 311 312 312 312 312 311 311 311 310 309 309 308 307 308 308 308 309 309 309 308 306 306 307 307 307 306 305 305 304 303 302 301 301 300 298 297 296 295 294 294 293 292 292 292 292 292 292 292 292 292 292 292 292 291 290 290 290 289 289 289 288 288 288 288 287 287 287 287 287 286
306 305 306 306 306 306 306 306 307 307 307 307 307 307 308 309 310 310 310 310 310 310 310 310 310 310 309 307 307 308 308 309 309 308 308 306 305 305 306 306 306 304 303 303 302 302 301 301 299 298 297 296 295 294 294 293 292 292 291 291 292 292 292 292 292 292 291 291 290 290 290 290 289 289 288 288 288 287 287 287 287 287 287 286 285
301 301 301 301 302 303 303 303 304 305 306 306 306 306 307 307 307 308 309 309 310 310 310 310 310 309 309 308 307 308 308 308 307 306 306 305 305 304 305 305 304 303 303 302 301 301 300 299 298 297 296 295 295 294 293 293 292 292 291 291 291 291 291 292 291 291 291 290 290 290 289 289 288 288 288 287 287 287 287 287 286 286 286 285 285
297 298 298 298 299 300 301 301 301 302 303 304 304 305 306 306 307 307 308 308 308 308 309 309 309 309 309 308 307 307 307 306 305 305 305 305 305 304 304 304 303 303 302 301 300 299 298 297 296 296 295 295 294 294 293 293 293 292 291 291 291 291 291 291 291 291 291 290 289 289 289 289 288 287 287 287 286 286 286 286 286 285 285 285 285
296 296 297 297 298 298 299 300 300 300 300 300 301 302 303 305 306 307 308 308 307 307 308 308 308 309 309 309 308 307 306 305 305 304 304 304 304 303 303 303 303 302 301 300 299 298 297 296 296 295 295 295 294 294 293 293 292 292 291 290 290 290 290 291 291 291 290 289 289 289 289 288 288 287 287 287 286 286 286 285 285 285 285 285 286
295 295 295 296 296 296 297 297 297 297 297 298 299 300 301 302 304 305 306 307 306 307 308 307 307 307 308 308 307 306 306 305 305 304 304 304 304 304 303 302 302 301 300 299 298 297 296 296 295 295 295 295 294 294 293 292 292 292 291 290 290 290 290 290 290 290 289 289 289 289 288 288 287 287 287 286 286 286 285 285 285 285 285 286 285
294 294 294 294 295 295 295 294 294 294 295 296 297 298 299 300 302 303 304 305 306 306 306 306 306 306 306 306 305 305 305 305 305 304 303 303 303 303 302 302 301 301 300 298 298 297 296 296 295 295 295 294 294 293 293 292 292 291 290 289 289 290 290 290 290 289 289 288 288 288 288 287 287 287 287 286 286 285 284 284 285 285 284 284 284
293 293 293 293 294 294 294 294 294 294 294 294 295 296 297 298 300 301 302 303 304 305 305 306 305 305 304 304 304 303 303 304 304 304 303 302 302 302 302 301 301 300 299 298 297 297 296 295 295 295 294 294 293 293 292 292 292 291 290 289 289 289 289 289 289 289 288 288 288 288 287 287 287 287 286 286 285 284 284 284 284 284 283 283 283
293 293 293 293 293 293 293 293 293 293 294 294 294 295 295 296 298 300 300 301 302 303 304 304 304 303 303 303 303 302 302 302 302 302 301 301 301 301 300 300 299 299 298 298 297 296 296 296 295 295 294 294 293 292 292 291 291 291 290 289 288 288 288 288 288 288 288 288 287 287 287 287 287 287 286 286 285 284 284 284 283 283 283 283 283
292 292 292 292 293 292 292 292 292 293 293 293 294 294 294 295 296 298 299 299 299 301 302 301 301 300 301 301 301 301 301 301 300 300 300 299 299 299 299 299 298 298 298 298 297 296 296 295 295 294 294 293 293 292 291 291 291 290 289 288 288 287 288 287 287 287 287 287 287 286 287 287 287 287 286 285 284 284 284 283 283 283 283 283 283
291 291 291 292 292 291 291 291 291 291 292 292 293 293 293 294 294 295 298 299 299 298 299 299 299 299 298 299 299 299 299 299 298 298 298 298 298 298 298 298 298 297 297 296 296 296 295 295 295 294 294 293 292 292 291 290 290 289 289 288 287 287 287 287 287 287 286 286 286 286 287 287 287 286 286 285 285 285 284 283 283 283 283 283 283
290 290 290 290 290 290 290 290 290 290 291 291 291 292 293 293 293 294 295 297 298 298 298 298 298 298 298 297 298 298 298 298 297 297 297 298 298 297 297 297 297 297 296 296 296 295 295 295 295 294 293 292 292 291 291 290 289 288 288 287 287 287 286 286 286 286 286 286 286 286 287 287 286 286 286 286 285 284 283 283 283 283 283 283 283
289 289 289 289 289 289 289 289 289 290 290 290 290 291 292 292 293 293 294 295 297 298 298 297 297 297 297 297 297 297 297 297 297 297 297 297 297 297 297 297 297 297 297 296 296 295 295 295 294 294 293 292 292 291 290 290 289 287 287 287 286 286 286 286 286 286 286 286 286 286 286 286 286 286 286 286 284 283 283 283 283 283 282 282 282
289 289 289 289 289 289 289 289 289 289 289 289 290 290 291 291 292 293 293 294 295 296 297 297 297 297 296 296 296 296 297 296 296 296 296 296 296 296 296 296 296 296 296 296 295 295 295 295 294 293 293 292 292 291 290 289 288 287 286 286 286 286 286 286 286 286 286 285 285 286 285 285 285 286 285 284 283 283 283 282 282 282 282 282 282
288 288 288 288 288 288 288 288 288 288 288 289 289 290 290 290 291 292 292 294 294 295 295 296 297 297 296 296 296 296 296 296 295 295 295 295 295 294 294 295 295 295 295 295 294 294 294 294 293 293 292 291 291 290 289 289 287 286 286 286 285 286 286 286 286 286 286 286 286 285 285 285 286 285 284 283 283 282 282 282 282 282 282 282 281
287 287 286 286 286 286 287 287 287 287 287 288 288 289 289 290 290 290 291 293 294 294 294 295 296 297 297 296 296 295 295 295 295 294 294 294 294 293 293 294 294 294 294 293 293 294 293 293 293 293 292 291 290 289 289 288 286 285 285 285 285 285 286 286 286 286 286 286 286 285 285 286 286 285 283 283 282 282 281 282 282 282 282 281 280
286 286 285 285 285 285 285 286 286 286 286 286 287 288 289 289 290 290 290 291 292 293 294 295 295 296 297 297 296 295 295 295 294 293 293 293 293 293 293 292 292 293 293 293 293 293 292 292 292 291 291 290 289 289 288 287 285 284 284 284 285 285 286 286 286 286 286 286 286 285 286 286 284 283 283 282 282 281 281 281 281 281 281 280 279
285 285 285 284 284 285 285 285 285 285 285 285 286 286 287 288 289 289 289 290 291 292 293 294 295 295 296 296 296 295 294 294 294 294 293 292 292 292 292 291 291 291 291 292 292 292 291 291 291 290 290 289 288 287 287 286 285 284 284 284 284 285 285 285 285 285 286 286 285 285 285 284 283 282 282 282 281 281 281 281 281 281 280 279 279
284 284 284 283 283 284 284 285 285 285 285 285 285 285 286 287 287 288 289 289 290 290 291 293 294 294 295 295 295 296 295 294 294 293 293 292 291 291 291 291 291 291 290 291 291 290 290 291 290 290 289 288 288 287 286 284 284 283 283 283 284 284 285 285 285 285 286 285 285 285 285 283 282 282 282 281 281 281 281 281 280 280 279 279 279
284 284 283 283 282 283 284 284 284 284 284 285 285 285 285 286 286 287 287 288 289 289 290 291 292 294 294 295 295 295 296 296 294 293 292 292 292 291 291 291 291 291 290 290 290 290 290 290 290 289 289 288 288 287 285 283 282 283 283 283 283 284 284 285 284 284 284 284 284 284 282 281 281 281 281 281 281 281 280 280 279 279 279 278 277
284 284 283 283 283 283 284 284 284 284 284 284 285 285 285 285 286 286 286 287 287 288 289 290 291 292 293 294 295 295 296 296 296 294 292 291 291 291 291 290 290 290 290 290 290 290 290 289 289 289 288 288 287 286 285 284 282 282 283 282 282 283 283 284 283 283 282 282 282 281 280 279 280 281 281 281 280 280 279 279 279 278 278 277 277
284 283 282 281 281 281 282 283 284 284 284 284 284 284 285 285 285 285 285 286 287 287 288 288 289 290 291 293 295 296 296 296 296 295 294 292 291 291 290 290 290 290 290 290 290 290 290 289 289 289 289 288 287 286 286 284 282 281 282 282 282 282 282 282 281 281 280 280 280 279 279 279 280 281 281 280 279 279 279 278 278 277 277 276 276
283 283 281 281 280 280 280 281 283 284 284 283 284 284 284 285 285 285 285 285 286 286 287 287 288 289 290 292 293 295 296 296 296 296 295 294 293 292 291 290 290 290 290 290 290 291 291 290 290 289 289 287 287 287 286 286 284 282 281 281 281 281 280 280 280 279 279 280 280 279 280 280 280 280 280 279 279 278 278 277 277 276 276 275 275
281 280 279 279 279 280 279 279 281 283 283 283 283 284 284 284 284 284 284 284 285 286 286 287 288 288 289 290 292 294 295 295 295 295 295 295 295 293 292 291 290 289 289 289 289 290 290 290 289 289 289 289 288 289 288 286 285 283 282 281 281 280 280 280 281 281 281 281 280 280 279 279 279 279 279 279 278 278 277 277 276 276 275 275 274
280 278 277 277 277 278 277 278 280 281 281 281 282 283 284 284 283 283 282 283 284 285 285 286 287 288 288 288 290 292 294 294 294 294 294 294 294 293 292 291 289 289 288 287 287 287 288 288 288 288 288 289 289 290 289 286 284 282 282 281 281 280 281 281 282 282 282 281 280 279 279 279 279 279 279 278 277 277 277 276 276 275 275 274 274
279 277 276 276 276 276 275 277 279 279 278 279 280 282 284 283 281 281 281 281 282 282 283 285 286 287 287 286 286 289 292 293 293 293 292 292 292 292 291 291 289 288 288 287 286 286 286 286 286 286 286 286 286 286 286 285 283 282 281 280 280 280 281 281 282 282 281 280 279 279 279 279 279 278 278 277 277 277 276 276 275 275 275 274 274
Wind_Speed
58 57 54 52 49 47 47 47 44 41 38 37 38 40 42 43 45 46 46 46 47 48 47 46 46 45 45 45 45 43 41 40 40 40 41 42 41 39 38 37 35 35 34 34 33 32 32 32 32 31 29 28 26 25 24 23 23 22 21 20 19 18 18 18 18 18 19 19 17 15 15 14 13 10 9 11 11 4 7 5 1 5 5 6 6
56 55 53 51 49 47 46 45 42 41 39 38 38 38 39 40 43 45 46 48 48 49 49 47 46 44 44 43 42 42 40 40 39 40 41 43 43 41 39 38 37 36 36 35 34 33 33 33 33 32 30 29 27 27 26 25 24 23 22 20 19 18 17 17 17 18 18 18 18 17 15 12 12 9 8 11 12 7 9 6 2 8 6 6 6
54 54 51 49 48 45 44 43 42 41 39 37 36 35 36 38 41 43 46 48 49 50 50 47 45 44 43 42 40 40 39 39 39 39 40 42 43 42 40 39 38 38 37 36 35 34 34 34 33 32 31 30 29 28 27 26 25 24 22 21 19 17 16 16 16 16 16 17 17 16 15 12 10 4 3 9 11 15 12 9 3 9 8 8 8
54 53 51 50 47 44 43 42 41 38 36 34 34 34 35 36 38 41 45 47 49 50 49 46 44 44 44 43 41 40 39 38 39 40 41 42 42 42 41 41 40 39 38 37 36 35 35 34 34 33 32 31 30 29 28 27 26 24 23 21 20 18 16 16 15 15 15 15 13 12 13 10 3 2 3 8 13 14 13 12 7 10 10 11 11
53 53 51 49 48 45 42 41 39 37 36 34 33 34 35 35 37 40 43 46 48 49 48 46 45 45 45 44 43 42 41 40 41 42 43 42 42 43 43 43 42 41 39 38 37 36 35 35 34 34 33 32 31 30 29 27 26 24 23 21 20 18 17 16 15 14 14 13 12 10 9 6 4 7 10 9 8 7 11 12 11 11 12 13 12
50 50 49 48 48 45 42 41 39 38 36 33 32 32 34 35 37 39 42 44 46 47 46 45 45 46 46 46 46 45 44 44 43 41 40 40 41 43 44 43 43 42 41 39 38 37 37 36 36 35 34 33 32 31 30 29 27 25 23 21 19 18 16 15 14 14 13 13 13 12 10 8 9 12 10 8 8 9 10 12 11 12 13 12 12
45 45 43 45 46 43 40 38 36 35 32 29 30 31 32 35 36 39 40 42 44 45 45 45 45 46 46 46 45 44 44 43 40 37 36 37 40 42 43 43 43 42 42 41 40 39 38 38 37 37 36 35 34 33 32 30 28 26 23 21 19 18 16 15 14 14 14 14 13 13 12 11 12 11 10 11 12 12 12 12 13 13 13 13 13
39 40 38 40 45 42 37 35 33 30 24 23 26 28 30 33 35 37 38 40 42 42 43 43 44 44 45 45 45 44 42 39 37 36 36 38 40 41 42 43 43 43 43 42 41 40 39 39 39 38 38 37 36 35 33 31 29 27 25 22 20 18 17 15 14 14 15 15 14 13 13 12 12 12 12 13 14 16 17 15 14 15 14 15 15
34 38 39 39 43 41 37 34 30 24 19 19 22 24 27 30 33 36 37 38 39 40 42 42 42 42 43 43 44 43 41 39 38 38 38 38 40 41 42 42 43 43 44 43 43 42 41 41 40 40 39 38 37 36 35 33 31 28 25 23 21 19 18 16 15 15 16 16 16 15 14 13 12 12 12 14 15 18 20 18 17 18 16 14 15
33 37 40 40 40 38 33 30 26 20 16 17 19 21 24 27 30 33 35 36 37 39 40 40 41 41 42 43 43 41 41 41 41 41 40 40 40 41 41 42 43 43 44 44 44 43 42 42 42 41 40 39 39 38 37 35 33 29 26 24 22 20 19 17 16 16 16 17 17 16 15 13 12 11 12 13 15 17 20 22 22 21 18 15 15
35 38 42 41 39 35 30 27 23 18 15 16 18 20 23 25 28 31 32 34 36 37 38 39 39 40 41 41 41 40 41 42 43 43 42 41 41 41 41 41 42 42 43 44 45 45 44 44 43 42 41 40 40 39 38 36 34 30 28 26 24 22 20 18 17 17 17 18 18 17 16 14 13 12 12 13 14 16 19 22 23 23 21 17 17
36 38 40 40 37 33 28 24 21 18 16 17 18 20 22 24 26 29 32 33 35 35 36 37 38 39 40 40 40 40 40 41 42 42 42 42 41 41 41 41 41 42 43 44 46 46 46 45 45 44 43 42 41 40 39 37 34 31 29 27 25 23 22 20 19 18 18 19 20 19 18 17 15 14 14 14 15 17 18 20 22 24 23 19 19
38 36 39 38 35 31 28 24 19 18 17 16 18 19 21 23 25 28 30 32 33 34 35 36 38 39 39 40 40 40 41 41 42 42 42 41 40 41 41 41 42 42 43 45 46 47 47 46 46 45 44 43 42 41 40 38 36 33 31 29 27 25 23 21 20 19 19 20 20 21 20 20 18 17 17 16 17 17 17 18 18 20 22 21 20
41 39 40 38 33 28 26 24 19 18 19 17 17 17 19 22 25 27 30 31 32 33 34 35 37 37 38 38 39 40 41 42 43 43 42 41 41 40 40 40 41 42 42 43 44 45 46 46 46 45 44 44 43 42 41 39 37 35 32 30 28 26 24 22 21 20 20 20 21 22 21 21 19 18 18 18 18 18 17 17 16 17 19 20 19
33 33 34 34 30 25 24 24 20 19 20 19 16 15 17 20 23 26 29 31 32 33 34 35 35 36 37 37 38 40 41 42 42 42 41 41 40 39 39 39 39 40 41 42 42 43 44 45 45 45 45 44 44 43 42 41 39 36 34 31 29 27 25 24 22 21 20 21 21 22 22 22 20 19 19 19 19 18 17 17 16 16 17 19 20
25 25 26 28 26 22 22 23 20 19 21 20 17 14 14 18 21 24 28 29 31 32 33 34 34 35 36 36 38 39 41 42 42 41 41 41 40 39 39 38 38 40 41 41 42 42 42 44 45 45 46 45 45 44 43 42 41 38 35 33 31 29 27 25 23 22 21 22 22 23 23 22 21 20 20 19 19 18 17 17 17 16 16 18 19
26 26 26 25 23 20 20 21 19 17 19 19 18 15 15 18 22 24 26 28 31 33 33 33 34 35 36 37 38 39 41 41 41 41 41 41 41 41 39 39 39 40 41 41 42 42 41 42 44 45 46 46 46 45 44 43 42 39 37 34 32 30 28 26 24 23 22 22 23 23 23 22 22 21 20 20 19 18 17 17 17 16 17 17 17
25 25 25 26 25 21 19 16 15 15 16 17 18 18 18 20 23 25 25 26 29 32 34 34 34 34 36 37 39 40 40 40 40 40 41 42 42 42 41 41 41 41 42 42 42 42 41 42 44 45 47 47 47 46 45 44 42 40 38 35 33 30 28 27 26 24 24 23 23 23 24 23 23 21 21 20 19 18 18 17 16 17 18 19 18
26 25 21 20 22 20 15 11 9 10 12 14 17 20 21 22 24 25 25 26 28 31 34 36 35 35 36 38 40 41 41 41 41 42 43 43 43 42 42 42 42 43 43 43 43 43 42 42 43 45 46 47 48 47 47 45 44 41 39 36 34 32 31 29 27 26 25 25 24 24 24 24 23 22 21 21 20 19 18 17 17 17 18 20 21
29 28 22 16 17 18 15 11 9 9 10 12 15 19 21 24 26 25 25 27 28 31 35 38 38 37 38 40 42 44 44 44 44 45 45 45 44 44 44 44 44 45 45 44 44 44 43 42 42 44 45 47 48 48 48 47 45 43 40 38 36 35 33 31 29 27 26 26 25 25 25 24 23 22 21 21 21 20 19 17 17 18 18 20 22
27 27 23 15 11 13 12 11 11 11 13 17 19 21 22 24 26 26 27 28 30 32 34 36 38 38 39 41 43 45 46 47 47 47 47 46 46 46 46 46 46 46 46 45 45 44 44 43 42 42 43 45 47 48 49 48 46 44 42 40 38 37 35 32 30 28 27 27 26 25 25 24 23 22 22 22 21 20 19 18 17 18 18 19 22
20 19 19 17 14 13 11 10 11 14 18 23 26 28 27 26 27 28 29 31 32 32 32 33 36 38 40 42 45 47 48 50 50 50 50 48 48 48 48 48 48 48 47 46 46 46 45 44 43 42 42 44 46 48 49 49 48 46 44 42 40 39 36 34 32 30 28 27 26 26 25 24 23 23 22 22 21 20 19 18 18 19 18 19 22
23 24 25 24 22 20 18 17 19 22 24 26 29 32 30 28 28 29 30 31 33 34 34 35 38 39 41 43 46 49 51 52 53 53 52 50 49 49 50 50 50 49 48 47 47 47 46 45 44 42 42 43 45 47 49 50 49 48 46 44 42 40 38 35 33 30 28 28 27 27 26 25 24 23 22 22 22 20 20 19 19 19 19 20 22
30 33 35 32 28 27 26 27 28 29 29 31 33 34 33 30 29 30 31 32 34 36 37 39 41 42 44 46 49 51 53 54 55 55 54 52 51 51 52 52 51 51 50 49 49 48 48 47 45 43 43 43 44 46 49 50 50 48 47 45 43 41 39 36 33 31 29 28 28 27 26 25 24 23 23 22 21 21 20 20 20 20 20 21 22
28 30 33 33 33 33 33 33 32 33 35 38 39 38 36 35 35 36 37 36 34 36 39 41 43 45 48 49 50 52 55 56 56 56 56 55 54 53 53 53 53 53 52 51 50 50 49 48 47 46 44 43 43 45 48 50 50 49 47 45 44 42 40 37 34 32 31 30 29 27 26 25 25 24 23 22 22 22 22 21 20 20 21 22 22
25 26 26 28 31 33 34 34 35 36 37 38 39 39 40 41 42 41 40 37 35 36 39 42 46 49 51 53 53 54 56 57 57 58 58 58 57 56 56 55 55 54 54 53 53 52 51 50 49 48 45 43 43 44 47 49 49 49 47 46 45 43 40 38 36 34 32 30 29 27 26 26 26 25 23 23 23 22 22 20 20 20 21 21 22
27 27 26 26 27 28 30 31 31 33 34 34 34 36 40 43 45 44 42 41 41 42 44 48 51 54 55 56 56 55 55 56 58 59 59 59 59 59 58 57 56 56 56 55 54 54 52 51 50 48 46 44 43 44 45 47 48 48 48 48 47 44 42 39 38 35 33 31 29 28 27 27 26 25 24 23 23 22 21 20 19 20 21 21 21
33 33 33 33 32 31 32 31 30 30 31 31 31 32 35 40 43 45 46 47 48 49 51 54 55 56 58 59 58 55 54 56 58 59 59 60 60 60 59 58 57 57 57 56 55 54 53 52 51 49 47 45 44 44 45 46 48 49 49 49 48 46 44 41 39 36 33 32 30 28 27 26 26 24 23 23 22 22 20 19 20 20 20 21 21
35 36 36 36 36 36 35 35 35 33 31 32 32 32 33 36 38 40 42 44 47 50 52 55 57 56 56 56 57 54 53 55 58 59 59 59 59 60 59 58 58 57 57 56 55 54 53 52 51 48 47 46 45 45 45 46 48 49 51 51 49 46 44 42 39 36 34 33 30 28 27 27 26 24 23 23 22 21 20 19 19 20 20 21 23
34 35 36 37 37 38 38 39 39 39 38 37 36 36 36 36 37 38 40 41 44 47 50 53 55 56 54 53 54 55 54 55 56 57 58 58 58 58 58 58 57 56 56 55 54 54 53 52 50 49 48 47 47 47 46 46 47 49 50 51 49 47 44 42 39 37 35 33 31 29 28 27 26 25 24 23 22 21 20 19 19 21 21 22 23
33 34 36 38 38 39 41 41 41 42 42 42 41 39 38 38 38 39 41 42 44 46 48 51 52 51 52 53 55 56 55 55 54 55 56 56 56 57 57 57 56 56 55 54 54 54 53 52 50 49 48 48 48 48 47 46 47 49 50 51 49 47 45 43 40 38 36 33 31 30 29 28 27 25 24 22 22 21 20 20 21 22 21 22 24
33 35 37 39 40 40 41 42 43 43 43 43 44 44 43 42 41 40 40 42 45 46 48 51 50 48 49 52 55 56 55 54 53 53 54 55 56 56 57 56 56 55 54 53 53 53 52 51 49 49 48 48 48 48 47 47 47 49 50 50 49 47 46 44 41 39 36 33 32 30 29 28 27 25 23 22 21 21 21 22 21 20 20 21 22
33 36 37 39 40 40 41 43 43 44 44 44 45 45 46 45 44 42 41 40 40 41 42 45 46 46 46 48 51 54 54 53 52 52 53 55 56 56 56 56 55 54 52 52 52 51 51 50 49 49 48 47 47 48 47 46 47 48 49 50 50 48 46 44 41 38 36 34 33 31 30 28 26 25 24 22 21 21 22 21 19 18 19 20 21
34 36 37 39 40 40 42 43 44 45 45 45 46 46 47 46 46 44 43 43 39 35 35 38 40 42 44 44 46 49 51 52 52 52 53 54 55 55 55 54 53 52 51 51 50 50 50 50 49 48 47 47 47 47 46 46 46 48 50 50 50 48 45 42 40 38 36 34 33 31 30 28 26 25 24 22 22 22 21 19 18 18 20 21 22
35 37 37 38 39 40 43 44 44 45 46 46 46 47 47 47 47 46 45 45 44 39 36 35 36 38 40 42 43 44 47 49 50 51 52 53 54 53 53 52 52 52 51 49 49 49 49 49 48 47 46 47 48 47 45 45 47 49 51 51 50 48 45 42 40 38 36 34 32 31 30 28 26 24 23 23 23 22 20 18 18 19 21 21 22
34 36 36 36 36 38 41 43 43 44 45 46 46 46 47 47 47 47 46 46 45 43 40 38 35 35 36 38 39 41 43 45 47 49 50 51 51 51 50 50 50 50 49 48 48 48 48 48 47 46 46 47 47 46 45 46 48 50 52 52 51 48 46 43 40 38 36 34 33 32 30 28 26 24 24 24 23 21 20 19 19 21 22 22 22
33 34 35 35 36 38 40 41 43 44 44 45 46 45 46 47 46 46 45 45 45 45 43 41 37 34 33 34 35 36 39 41 43 46 48 49 49 48 49 49 49 49 48 48 48 47 47 46 46 46 46 47 47 45 45 47 49 51 53 54 51 48 46 43 40 37 36 35 34 33 30 28 26 25 25 24 22 21 20 20 20 21 22 22 22
34 34 36 37 39 40 41 41 43 44 44 45 46 45 45 46 46 45 44 43 44 46 46 45 41 36 31 30 31 32 34 36 39 42 44 46 47 47 48 47 47 48 47 46 46 45 45 45 45 45 45 45 46 45 45 47 49 52 54 54 50 48 45 42 39 38 36 36 35 32 30 28 27 26 25 23 20 20 21 20 20 21 22 22 22
33 34 36 38 40 41 42 43 44 45 45 46 46 46 46 46 45 44 42 41 42 45 46 46 44 40 34 31 28 28 29 32 35 38 40 43 44 45 46 46 46 46 45 44 44 43 44 44 44 44 44 44 45 45 45 47 49 52 55 53 49 48 46 43 41 39 37 36 34 32 30 30 28 25 23 21 20 20 21 20 20 21 22 22 21
33 34 36 39 40 41 43 45 45 46 47 47 47 46 46 46 46 44 42 40 39 41 43 45 45 42 39 35 30 28 27 28 30 33 36 39 41 43 44 45 44 44 43 43 43 42 42 42 42 43 43 44 45 45 45 48 49 51 54 52 49 48 47 44 41 39 38 37 34 33 32 30 28 24 21 20 19 19 20 20 20 22 22 21 20
34 35 37 39 41 41 43 44 45 46 47 47 47 47 46 46 46 46 44 40 39 39 39 41 43 43 41 38 35 31 28 27 27 30 33 36 38 40 42 43 43 43 42 42 42 42 41 41 41 42 43 44 45 45 45 47 48 50 51 51 49 47 46 43 40 39 38 36 35 34 32 30 27 23 21 20 19 19 20 20 21 22 21 19 20
33 34 36 39 41 43 44 45 45 46 47 47 47 47 46 46 46 46 45 43 41 40 38 38 40 41 41 40 38 35 31 28 27 28 31 34 36 38 40 41 41 42 41 41 41 41 41 41 41 42 43 45 46 45 45 46 48 49 50 51 49 45 44 42 40 39 38 36 35 34 31 28 25 22 21 20 20 19 20 20 21 21 19 19 20
34 36 36 38 41 44 46 46 47 47 47 47 47 47 47 47 47 46 46 45 44 42 40 38 37 38 39 40 40 39 35 30 27 27 28 32 34 36 38 39 40 40 40 40 41 41 41 41 41 42 44 46 46 45 44 46 47 47 48 50 48 45 43 42 40 39 38 35 34 33 29 26 24 22 21 20 20 20 21 21 20 19 18 20 21
37 38 38 39 42 45 47 48 48 47 47 47 47 48 49 48 47 46 45 46 46 45 42 40 38 37 37 37 38 39 38 34 29 27 27 29 32 35 36 37 38 39 40 40 41 41 41 41 42 43 45 46 45 44 44 45 46 46 45 47 48 45 43 42 40 39 37 35 34 32 29 26 24 22 21 21 21 21 21 19 19 19 19 19 19
38 39 39 40 43 46 50 52 51 49 48 47 47 48 50 51 49 47 46 46 46 46 45 43 41 38 37 36 35 37 38 37 34 30 28 28 31 33 36 38 39 40 40 41 41 41 40 41 42 43 45 45 44 44 43 44 46 44 41 42 45 44 42 42 41 39 37 35 33 30 27 24 23 22 22 21 20 20 19 19 18 18 18 17 18
40 41 41 42 45 48 51 54 55 54 51 50 48 48 49 51 51 49 48 46 45 47 48 46 44 40 38 37 35 35 36 37 36 34 31 29 30 32 35 38 39 40 41 41 41 40 40 42 43 44 45 45 44 43 43 44 47 45 40 37 39 40 41 42 41 38 35 34 31 27 24 23 23 22 21 19 18 18 18 18 16 16 16 16 18
42 43 43 43 45 47 50 54 57 58 56 54 52 50 49 50 50 50 50 49 47 46 48 48 46 42 39 38 37 36 36 37 37 36 33 32 32 33 35 38 40 41 41 41 41 42 42 43 45 45 45 45 44 43 44 45 48 48 43 37 36 37 38 40 39 36 34 31 28 26 25 24 23 21 18 17 18 17 16 15 15 15 15 16 17
44 44 45 46 47 49 50 52 56 58 59 58 56 54 52 50 49 50 51 51 50 47 47 48 48 45 41 39 38 38 38 37 37 37 36 36 36 36 37 39 41 41 42 42 42 42 42 42 44 45 45 46 45 45 46 48 50 52 49 43 39 37 37 37 36 34 32 30 29 28 26 23 20 19 18 18 17 15 14 14 14 14 15 15 17
46 45 45 46 50 52 52 54 56 58 58 59 59 59 56 53 51 50 50 52 52 50 48 48 48 47 44 42 40 39 39 39 38 38 39 39 39 38 39 40 41 41 41 42 42 42 41 41 42 43 44 45 45 45 47 47 49 51 52 50 45 41 37 35 34 33 32 32 31 27 23 21 20 19 18 17 16 15 14 14 13 13 14 15 17
48 47 46 47 50 51 52 56 59 59 58 58 59 60 59 57 54 53 52 52 52 51 50 48 47 47 46 44 42 42 41 40 40 39 40 40 40 40 40 40 41 41 41 42 42 42 42 41 42 43 43 43 42 42 43 46 48 50 52 51 48 44 40 37 36 35 33 31 28 24 22 21 20 19 18 16 16 15 13 12 12 13 14 16 17
51 50 50 50 52 53 54 58 61 60 59 59 59 59 60 59 56 54 52 51 49 48 49 48 46 46 46 44 43 44 43 41 40 40 40 40 40 41 41 41 41 42 42 42 43 43 43 43 43 43 42 41 41 40 41 44 47 50 52 51 49 46 43 40 40 38 34 29 25 23 23 23 21 20 19 17 16 14 12 11 12 13 14 16 17
Wind_Direction
282 285 283 282 281 280 277 274 274 273 270 266 262 260 259 257 253 249 246 245 244 242 240 237 236 234 232 232 232 232 231 232 232 231 231 230 230 231 231 231 231 231 231 232 232 232 232 233 234 235 236 238 239 240 242 244 246 251 256 262 270 279 288 294 298 299 299 299 299 303 308 312 314 301 271 236 208 260 303 234 276 352 347 340 335
281 283 284 283 281 279 277 275 274 273 272 270 266 264 260 256 253 249 246 244 244 244 242 239 238 238 237 237 236 233 232 233 233 232 230 229 228 228 229 230 230 231 232 232 232 232 232 232 234 234 236 236 235 236 237 241 245 248 254 260 267 276 286 292 298 299 299 302 303 305 309 317 318 297 265 222 208 300 308 220 311 346 342 342 345
279 282 285 284 283 281 279 276 275 274 274 272 269 265 259 254 251 248 245 244 244 243 242 240 239 239 239 239 238 234 232 234 234 234 231 229 228 227 228 229 230 230 231 232 232 232 232 233 234 235 235 235 235 237 238 241 243 247 252 258 265 273 282 288 293 296 297 301 306 310 312 321 326 302 219 214 242 292 277 218 308 341 342 343 343
278 281 285 285 283 281 280 278 277 276 273 270 267 263 257 253 251 247 245 244 243 243 241 238 236 236 235 235 234 232 231 232 233 233 231 230 229 228 229 229 229 230 231 232 232 232 232 233 234 234 234 235 235 237 240 242 244 247 251 256 263 270 277 283 287 289 290 294 299 307 312 321 332 179 257 275 280 283 243 223 293 327 337 339 341
277 281 285 286 282 280 279 278 278 276 273 270 269 265 260 255 251 248 246 244 243 242 239 235 232 231 231 229 227 227 228 229 230 230 229 229 229 228 228 228 229 230 230 231 232 232 232 232 233 233 233 234 235 236 238 240 243 246 250 255 261 267 273 279 282 283 284 286 289 292 301 304 266 276 298 299 294 274 240 250 289 311 325 332 340
278 281 286 288 284 280 279 279 279 278 276 275 271 266 261 256 252 248 246 244 242 240 237 234 232 230 229 228 226 225 226 228 230 231 231 230 230 229 228 228 228 229 230 231 231 231 231 232 232 232 232 233 233 234 234 237 241 245 249 254 259 266 273 277 279 282 283 282 283 282 282 280 281 293 302 295 293 286 267 274 290 305 317 324 334
281 284 287 289 286 282 283 284 284 284 283 279 270 262 257 253 251 249 247 245 242 239 236 234 232 231 231 232 232 231 232 234 235 236 236 234 233 231 229 228 228 229 230 231 231 231 231 231 231 231 231 231 231 232 233 236 239 242 246 250 257 264 271 277 280 283 286 284 282 282 280 278 282 291 297 297 297 292 286 291 298 308 319 322 328
284 286 286 288 287 286 288 291 291 289 286 275 266 259 254 251 250 248 246 245 242 239 237 235 233 232 232 233 234 235 237 240 240 238 238 236 234 233 231 230 229 229 230 231 231 231 230 230 230 230 230 230 230 231 232 234 236 239 242 247 254 261 268 274 279 283 287 287 285 285 284 284 287 291 297 301 299 299 300 302 306 313 321 322 328
284 285 286 287 287 288 292 295 293 287 279 269 262 257 253 249 247 246 244 243 241 239 237 236 235 234 234 234 234 236 237 239 239 239 239 237 235 233 232 231 230 230 230 231 231 231 231 230 230 229 229 229 230 230 231 232 234 237 240 245 251 257 264 270 277 281 284 286 286 285 285 285 288 293 298 300 300 302 305 307 312 315 316 322 332
285 285 287 287 289 291 294 297 292 280 270 262 256 252 249 246 244 243 243 242 240 239 237 236 235 234 233 234 235 235 235 235 236 236 238 238 237 235 233 232 231 230 231 231 231 231 231 230 230 229 229 229 230 230 230 231 233 235 238 242 247 252 259 265 271 276 279 282 283 283 283 282 283 286 288 293 297 299 302 307 313 317 318 324 333
290 289 288 288 290 294 297 297 289 274 263 255 246 244 244 242 242 242 242 241 240 238 237 235 235 234 234 234 235 236 236 236 236 235 236 237 237 236 235 234 233 232 232 232 233 232 231 230 230 229 229 229 230 230 231 233 233 234 236 240 244 248 253 259 265 269 272 276 278 279 279 280 280 282 283 288 292 295 300 305 310 315 318 325 330
290 290 291 292 293 297 300 299 286 267 259 251 241 238 239 240 241 241 240 240 239 238 237 236 235 235 235 235 235 236 237 237 238 238 239 238 238 237 236 235 234 233 233 233 233 233 232 230 229 228 228 228 229 230 231 232 233 233 236 238 242 245 249 255 259 263 266 270 274 275 276 279 281 284 287 288 289 292 297 303 307 311 314 320 328
288 291 294 297 299 300 303 301 286 265 255 249 243 241 241 242 242 242 243 242 240 238 237 237 236 236 236 235 235 236 237 238 239 239 240 240 239 238 237 235 234 233 233 232 232 233 232 231 230 229 229 229 229 230 230 232 232 233 235 237 240 244 247 251 255 259 263 267 272 274 275 277 281 286 289 289 290 292 295 299 304 309 312 316 320
292 296 297 298 299 301 304 300 285 264 252 244 243 246 247 248 247 246 245 243 241 239 238 238 237 237 237 237 237 238 238 239 239 240 240 241 241 240 240 238 237 236 236 235 234 233 233 233 232 231 230 230 230 230 231 231 232 234 235 237 239 242 244 248 252 256 260 265 270 274 275 276 279 285 288 291 292 294 297 299 303 308 312 315 315
306 304 300 300 300 299 301 297 282 263 251 244 241 247 253 254 253 251 248 244 242 241 240 239 238 238 237 238 238 239 240 241 242 242 242 242 242 242 242 241 241 241 240 240 239 236 235 234 233 232 232 231 231 230 231 231 232 233 234 236 237 239 242 245 250 253 257 262 267 270 273 274 278 283 288 291 292 294 297 300 305 310 313 317 318
337 327 315 309 304 299 296 293 285 264 250 245 241 242 252 256 255 255 253 250 248 246 243 241 239 239 238 239 239 239 240 240 241 242 242 242 243 242 243 242 243 243 243 243 241 239 238 236 235 234 233 232 231 231 231 231 232 232 233 234 236 238 241 243 247 250 253 257 261 266 269 272 276 282 286 288 288 290 293 297 304 311 313 315 318
358 350 340 327 314 299 288 286 283 265 248 246 247 246 252 257 257 256 254 253 252 249 246 243 240 240 239 239 239 238 238 238 238 238 240 241 242 242 242 242 242 243 244 244 243 241 239 238 237 236 234 233 232 231 231 231 232 232 233 235 237 239 240 241 243 246 249 253 257 262 266 269 273 279 284 286 285 285 288 292 300 307 310 311 312
0 356 348 337 328 314 299 292 282 263 251 252 255 255 257 260 259 257 257 259 258 254 249 245 242 241 240 239 238 237 236 236 236 237 238 239 240 240 240 240 240 241 242 243 244 243 240 239 238 237 235 234 233 232 231 231 231 231 232 233 235 236 237 238 241 243 247 251 255 259 263 266 270 276 281 282 280 279 281 287 295 301 305 309 311
348 350 349 350 349 341 332 321 297 273 268 268 265 264 263 263 262 260 260 263 263 260 254 248 245 243 242 241 240 239 237 236 235 236 237 237 237 237 237 238 238 239 241 242 243 243 240 238 237 237 236 234 233 233 232 231 231 230 231 231 232 233 234 236 239 242 246 250 254 258 262 264 267 272 277 277 274 273 276 281 289 297 302 309 315
333 332 334 350 0 355 354 347 326 310 301 292 284 278 273 270 268 266 265 264 263 261 255 250 247 245 245 243 242 241 240 239 238 237 237 236 236 236 236 237 238 239 240 241 242 243 242 239 237 237 236 235 234 233 232 231 230 230 230 230 231 232 233 235 237 240 244 248 252 256 260 263 265 269 272 272 269 268 272 277 285 293 301 309 314
323 318 315 314 328 341 346 344 338 334 327 318 306 293 284 279 276 271 267 265 263 262 258 253 249 248 247 245 243 243 242 242 241 241 240 239 239 238 238 238 238 239 240 241 242 243 243 241 238 237 237 236 235 234 233 232 231 230 230 229 230 231 232 234 235 238 243 247 252 255 259 261 263 266 268 268 266 266 269 276 284 291 299 307 310
315 312 310 308 314 324 325 326 330 329 327 324 313 299 288 285 284 276 269 267 265 263 262 259 254 251 250 248 245 245 245 244 243 242 241 240 240 240 239 240 240 239 240 241 242 244 245 243 240 237 236 236 236 235 234 233 231 231 230 229 230 230 231 232 233 237 242 246 251 254 257 258 260 263 266 265 264 264 268 275 282 288 297 304 306
313 313 311 309 308 308 306 305 306 309 314 318 315 302 289 284 284 280 278 276 271 266 264 261 257 255 254 251 248 247 246 245 244 243 241 240 239 239 240 241 241 241 241 241 243 244 245 245 242 239 237 236 236 235 234 233 232 231 231 231 230 230 231 232 234 238 242 245 249 252 254 256 258 261 263 262 261 262 267 273 280 288 295 300 303
301 301 303 308 311 310 308 304 299 299 304 312 313 303 290 283 283 282 283 284 282 276 270 263 260 259 257 254 252 250 248 247 245 244 242 241 240 240 240 242 242 243 243 243 244 245 245 245 243 241 238 236 235 235 234 233 232 232 232 232 231 231 232 233 235 238 241 243 247 250 253 255 257 260 261 260 259 261 265 271 278 287 293 297 300
304 305 310 319 325 325 323 319 315 310 309 312 311 304 292 286 286 286 283 282 284 284 280 274 268 264 259 257 255 254 252 250 248 246 244 243 242 241 242 242 243 244 244 244 244 245 245 245 244 242 239 236 235 235 234 233 232 232 232 232 232 232 232 233 235 237 239 241 244 248 252 255 257 260 260 259 257 259 263 269 278 286 291 294 297
339 337 335 329 325 324 324 323 323 322 321 320 315 308 299 292 290 288 284 282 284 286 285 284 280 272 265 260 257 256 255 254 252 249 247 245 244 243 243 243 244 245 245 245 245 245 245 246 246 244 242 239 236 235 235 234 233 232 232 231 231 231 231 232 234 236 238 240 243 246 250 255 258 260 259 257 256 258 262 269 277 284 287 290 293
7 6 2 354 345 342 338 332 326 323 322 321 317 311 305 301 297 294 292 293 294 292 290 289 286 279 270 263 259 258 259 258 256 252 249 247 246 245 244 244 244 245 245 245 245 245 246 246 246 245 243 241 238 235 235 234 233 233 232 231 230 229 229 230 232 234 236 239 242 245 250 255 258 258 257 254 255 258 263 269 275 280 284 287 291
14 13 9 6 3 0 358 353 346 336 327 322 318 312 306 303 301 300 300 300 299 297 294 292 287 280 273 266 261 261 262 261 257 252 249 248 247 246 246 246 245 245 246 246 246 246 246 246 245 244 243 242 239 236 234 234 233 232 232 231 229 228 229 230 231 233 235 238 241 244 249 253 255 255 253 251 253 257 262 268 273 278 282 285 289
8 6 4 2 1 358 357 357 355 351 344 336 330 323 317 309 301 298 297 298 299 299 296 293 288 283 279 271 264 263 263 259 256 252 250 249 248 248 247 247 247 247 247 247 247 246 246 245 244 243 242 242 240 237 235 233 233 232 231 230 229 228 229 230 231 233 234 236 239 243 247 250 251 250 248 248 252 256 261 267 273 276 278 282 287
3 1 360 359 358 357 357 355 355 353 351 348 342 336 331 322 311 302 296 295 298 297 295 293 290 287 283 275 267 266 264 259 256 254 251 250 249 248 247 247 248 248 247 247 246 245 245 244 243 243 242 242 240 238 235 233 233 233 232 230 229 229 229 230 231 232 234 235 238 241 244 245 246 245 245 248 252 256 262 267 269 270 274 282 290
0 358 357 357 357 357 356 355 354 353 352 351 347 342 337 331 323 315 305 298 295 290 288 289 290 289 285 276 269 266 264 261 258 255 252 250 249 248 247 247 247 247 246 246 245 244 243 243 243 242 242 242 240 238 235 232 232 232 232 230 230 230 230 230 231 232 233 235 237 239 241 242 242 243 245 248 252 258 264 265 266 270 280 289 294
357 355 354 354 354 353 352 351 350 350 351 351 349 345 341 338 334 329 321 308 297 290 289 289 289 289 284 278 272 267 263 261 259 255 252 249 247 247 246 245 245 245 245 244 243 243 242 242 242 242 241 241 241 238 235 233 232 232 231 230 230 230 230 230 231 231 232 233 235 236 238 238 240 242 244 248 253 258 261 263 269 277 284 289 291
352 351 351 350 349 348 347 347 346 346 347 347 346 344 342 341 341 340 338 328 311 298 295 295 293 289 283 279 274 267 263 262 258 254 251 248 245 245 244 244 244 243 243 243 242 242 241 240 240 240 241 241 240 238 235 233 233 232 231 229 229 229 230 230 230 231 232 232 232 234 234 235 237 240 243 249 253 256 259 263 271 277 278 280 285
347 347 347 346 345 344 343 342 342 341 341 342 342 342 340 340 342 343 346 345 335 318 307 304 301 293 286 281 276 269 265 262 257 252 250 246 245 244 244 243 243 241 241 242 241 241 240 240 240 240 240 240 239 237 234 233 233 232 230 229 228 228 228 229 229 230 231 231 231 231 232 233 235 239 244 249 251 253 257 263 269 272 274 279 283
343 343 343 343 342 341 339 339 339 338 338 338 338 339 337 337 340 342 344 347 346 339 331 323 312 300 290 284 278 273 267 262 256 252 249 246 245 244 243 243 242 241 241 242 241 240 239 239 239 239 239 238 237 236 233 232 232 231 230 228 227 226 226 227 228 228 229 229 229 229 230 231 234 239 244 247 249 254 261 267 270 272 276 280 283
339 340 340 340 340 338 337 337 336 336 336 336 336 336 335 335 337 338 340 343 346 346 344 338 327 314 300 289 282 276 269 263 257 253 249 247 246 245 244 243 242 241 240 240 240 240 239 239 239 239 238 237 236 234 232 231 231 230 229 227 225 224 225 225 226 227 226 227 227 227 229 231 234 238 242 246 253 260 265 267 269 272 277 281 285
336 338 337 336 336 335 336 335 334 334 335 335 335 335 333 333 334 335 336 338 342 345 345 343 338 328 314 300 290 282 274 267 262 257 253 250 248 246 245 243 241 240 239 239 239 238 238 239 239 239 237 236 235 233 230 229 229 229 229 227 223 222 223 224 225 225 225 226 226 227 229 232 234 238 243 249 256 261 263 265 270 275 279 283 285
334 335 334 334 334 333 334 333 332 332 334 335 334 333 332 331 332 333 333 333 334 337 341 342 341 336 325 310 299 290 281 272 266 261 257 255 252 249 246 244 242 241 240 240 239 238 238 238 239 239 239 238 237 234 230 229 228 228 229 228 224 222 223 223 223 223 224 225 226 227 230 231 234 238 244 249 253 256 260 265 270 274 277 280 282
332 333 332 331 331 331 330 331 331 331 332 333 332 332 331 330 329 329 330 330 328 328 332 335 337 337 332 321 309 299 288 278 271 266 262 258 254 251 248 245 242 241 241 240 239 238 238 239 238 239 239 238 238 234 230 229 227 227 229 228 224 222 222 222 222 222 223 224 225 227 229 231 235 240 244 247 249 253 258 263 267 271 273 276 281
329 331 330 330 330 329 329 329 330 330 330 330 330 329 329 329 328 327 326 326 325 324 325 326 329 333 334 330 322 310 299 290 281 274 266 260 256 252 248 245 242 241 239 238 238 237 238 239 238 238 238 237 236 233 230 228 225 226 230 228 223 222 223 222 222 223 223 223 223 225 228 232 237 240 242 245 247 250 256 261 264 267 271 277 281
327 329 330 329 328 328 327 327 327 328 327 328 328 326 325 325 325 324 324 323 320 318 319 318 320 325 329 331 328 321 312 303 292 279 269 262 257 252 249 246 243 240 238 236 236 236 236 237 238 238 238 236 236 233 230 228 224 223 228 229 224 223 224 223 223 223 223 222 223 225 228 233 237 238 240 243 245 248 254 259 263 267 272 278 278
325 327 329 329 328 327 327 325 325 326 326 326 326 323 322 321 320 321 322 320 315 312 312 312 312 315 320 324 326 324 319 310 298 284 272 265 259 254 251 247 244 241 238 237 236 235 235 235 236 236 236 235 234 231 229 227 223 220 225 229 227 224 226 226 224 223 222 221 223 226 229 232 234 234 237 241 244 247 250 254 261 266 270 272 273
322 323 325 326 326 326 327 325 325 325 325 325 324 321 319 317 316 317 319 317 314 309 306 305 305 306 309 313 317 319 317 311 303 292 278 268 261 256 251 247 244 242 239 237 237 235 234 234 235 235 235 234 233 230 227 225 222 219 221 228 229 225 225 226 225 224 223 222 223 225 227 228 229 230 234 238 240 243 246 250 256 260 262 266 273
319 320 321 322 322 323 324 324 324 325 325 324 324 322 318 315 314 315 314 312 312 309 303 299 298 299 300 302 306 309 310 309 305 296 283 272 264 258 253 249 246 243 240 238 237 235 234 234 234 234 234 234 232 230 226 222 220 217 217 224 228 225 224 226 225 224 223 222 223 226 226 224 224 225 229 233 235 239 243 245 250 254 259 268 277
316 317 317 317 318 320 321 321 322 324 324 324 323 321 317 314 313 314 312 309 308 306 303 299 295 293 294 295 297 298 301 303 303 297 286 276 267 260 255 251 247 244 241 239 238 236 235 235 235 234 234 233 231 229 224 218 216 214 214 220 227 226 224 225 224 222 221 221 222 224 222 219 218 220 225 231 234 235 239 242 246 253 262 270 277
313 313 314 315 316 317 318 319 320 321 323 323 322 320 317 313 312 312 310 306 303 302 301 298 295 292 289 288 289 289 291 294 297 294 288 280 271 264 258 253 250 246 243 241 239 238 237 236 236 235 234 233 230 227 224 219 214 212 210 215 224 225 223 224 223 220 220 220 219 220 217 213 215 221 226 229 229 229 235 241 247 254 263 271 276
310 311 311 311 312 313 315 316 317 319 320 319 319 318 316 313 310 308 306 303 300 297 296 295 294 291 287 283 282 282 283 286 288 289 288 282 275 268 260 254 251 247 244 242 240 239 237 236 236 235 234 233 230 227 224 219 214 210 206 208 218 221 219 220 220 215 215 217 215 215 215 214 217 222 223 222 223 226 233 241 249 257 265 273 279
309 310 309 309 310 310 310 312 314 316 316 315 315 315 315 312 309 305 303 301 298 295 292 290 290 289 285 280 278 277 278 279 281 282 282 281 277 271 264 260 257 252 248 246 243 241 240 239 237 236 234 231 229 227 225 222 217 213 207 205 211 214 212 214 215 211 210 214 215 215 215 214 215 218 218 218 220 225 231 238 248 258 266 274 280
308 308 307 307 307 308 308 308 310 312 312 311 312 312 312 311 307 302 300 298 296 294 291 287 285 286 283 279 275 273 273 274 275 276 277 277 276 274 269 265 261 256 253 250 248 247 246 243 241 240 238 236 233 231 229 224 220 216 211 207 207 209 209 213 217 215 214 216 216 214 211 209 211 215 216 216 218 221 227 236 247 258 267 274 279
307 306 304 304 304 305 305 305 307 308 307 307 308 308 308 308 304 300 297 295 294 293 291 286 283 283 282 278 273 270 270 270 271 272 273 273 272 271 268 265 262 258 255 252 249 248 248 245 243 243 243 243 244 241 235 226 219 216 213 210 209 212 215 217 219 219 218 218 215 210 205 207 212 214 213 213 217 220 227 237 248 259 267 274 278
305 304 303 303 303 303 302 303 304 305 304 303 304 304 304 304 302 299 296 294 293 293 290 285 282 280 280 278 273 269 267 268 269 270 270 270 268 267 266 264 261 258 256 252 249 248 247 246 245 244 243 243 243 240 235 227 220 215 213 211 210 214 216 217 218 218 217 215 211 208 207 208 209 208 209 212 216 221 228 237 249 260 267 273 279